Location: El Limón
(10.3059°N, 67.6321°W)
Time: 12:30:05
(UTC+00:00)

Cosmos 2056 Rocket - Pass Details

Date: 14 April 2024
Orbit: 739 x 799 km, 74.0° (Epoch: 29 May)

Event Time Altitude Azimuth Distance (km) Brightness Sun altitude
Rises 09:06:36 0° 348° (NNW) 3,290 6.8 -18.6°
Reaches altitude 10° 09:09:00 10° 349° (N) 2,363 6.1 -18.0°
Maximum altitude 09:14:24 84° 78° (ENE) 805 3.6 -16.7°
Drops below altitude 10° 09:19:47 10° 166° (SSE) 2,357 6.0 -15.4°
Sets 09:22:10 0° 166° (SSE) 3,281 6.8 -14.8°
